Omaha Offutt, NE

6:06 PM CDT on May 22, 2017 (GMT -0500)
Offutt Air Force Base

Weather History for KOFF - December, 2013

Change the Weather History Date:

Saturday, December 21, 2013

  Actual Average Record
Temperature  
Mean Temperature 22 °F -  
Max Temperature 25 °F 32 °F 51 °F (2016)
Min Temperature 18 °F 15 °F -3 °F (2008)
Degree Days  
Heating Degree Days 44    
Moisture  
Dew Point 18 °F    
Average Humidity 83    
Maximum Humidity 96    
Minimum Humidity 74    
Precipitation  
Precipitation 0.00 in - - ()
Sea Level Pressure  
Sea Level Pressure 29.87 in    
Wind  
Wind Speed 5 mph (NNE)    
Max Wind Speed 15 mph    
Max Gust Speed 21 mph    
Visibility 10 miles    
Events Snow    
Averages and records for this station are not official NWS values.
T = Trace of Precipitation, MM = Missing Value Source: NWS Daily Summary

Daily Weather History Graph

Daily Weather History Graph

Search for Another Location

Airport or City:

Trip Planner

Search our weather history database for the weather conditions in past years. The results will help you decide how hot, cold, wet, or windy it might be!

Date:

Astronomy

Dec. 21, 2013 Rise Set
Actual Time 7:45 AM CST 4:58 PM CST
Civil Twilight 7:14 AM CST 5:29 PM CST
Nautical Twilight 6:39 AM CST 6:04 PM CST
Astronomical Twilight 6:06 AM CST 6:37 PM CST
Moon 9:17 PM CST (12/21) 10:10 AM CST (12/21)
Length of Visible Light 10h 15m
Length of Day
9h 12m
Waning Gibbous, 84% of the Moon is Illuminated
Dec 21
Waning Gibbous
Dec 25
Last Quarter
Jan 1
New
Jan 7
First Quarter
Jan 15
Full

Hourly Weather History & Observations

Time (CST) Temp. Windchill Dew Point Humidity Pressure Visibility Wind Dir Wind Speed Gust Speed Precip Events Conditions
12:58 AM 19.0 °F - 14.4 °F 82% 29.96 in 10.0 mi West 1.2 mph - N/A   Overcast
1:58 AM 19.0 °F - 14.4 °F 82% 29.93 in 10.0 mi WSW 2.3 mph - N/A   Overcast
2:58 AM 19.0 °F 12.3 °F 14.4 °F 82% 29.89 in 10.0 mi NW 4.6 mph - N/A   Overcast
3:58 AM 19.4 °F - 14.2 °F 80% 29.88 in 10.0 mi Calm Calm - N/A   Overcast
4:58 AM 19.8 °F - 14.5 °F 80% 29.91 in 10.0 mi Calm Calm - N/A   Overcast
5:58 AM 18.9 °F 12.1 °F 14.9 °F 85% 29.87 in 10.0 mi NNE 4.6 mph - N/A   Overcast
6:58 AM 18.7 °F 13.5 °F 15.8 °F 89% 29.93 in 10.0 mi East 3.5 mph - N/A   Overcast
7:58 AM 18.9 °F 12.1 °F 15.1 °F 85% 29.93 in 10.0 mi East 4.6 mph - N/A   Overcast
8:58 AM 19.4 °F 14.3 °F 14.5 °F 81% 29.93 in 10.0 mi ENE 3.5 mph - N/A   Overcast
9:38 AM 21.2 °F 13.6 °F 15.8 °F 80% 29.85 in 10.0 mi NNE 5.8 mph - N/A   Scattered Clouds
9:58 AM 20.5 °F 15.6 °F 14.7 °F 78% 29.93 in 10.0 mi North 3.5 mph - N/A   Mostly Cloudy
10:23 AM 21.2 °F 16.4 °F 15.8 °F 80% 29.86 in 10.0 mi NE 3.5 mph - N/A   Scattered Clouds
10:58 AM 23.0 °F - 15.8 °F 74% 29.95 in 10.0 mi NNE 2.3 mph - N/A   Mostly Cloudy
11:08 AM 23.0 °F 17.0 °F 15.8 °F 74% 29.87 in 10.0 mi ENE 4.6 mph - N/A   Mostly Cloudy
11:18 AM 23.0 °F - 15.8 °F 74% 29.86 in 10.0 mi NNE 2.3 mph - N/A   Mostly Cloudy
11:38 AM 23.0 °F 18.4 °F 15.8 °F 74% 29.85 in 10.0 mi ENE 3.5 mph - N/A   Mostly Cloudy
11:58 AM 23.0 °F 17.0 °F 17.4 °F 79% 29.92 in 10.0 mi NE 4.6 mph - N/A   Overcast
12:53 PM 24.8 °F 16.1 °F 19.4 °F 80% 29.82 in 10.0 mi NNE 8.1 mph - N/A   Overcast
12:58 PM 24.3 °F 17.3 °F 18.7 °F 79% 29.88 in 10.0 mi North 5.8 mph - N/A   Overcast
1:58 PM 24.4 °F 15.6 °F 19.2 °F 81% 29.86 in 10.0 mi North 8.1 mph - N/A   Overcast
2:58 PM 24.8 °F 17.9 °F 20.3 °F 83% 29.86 in 10.0 mi North 5.8 mph - N/A   Overcast
3:58 PM 25.2 °F 15.1 °F 21.2 °F 85% 29.86 in 10.0 mi NNE 10.4 mph - N/A   Overcast
4:53 PM 24.8 °F 15.3 °F 19.4 °F 80% 29.81 in 10.0 mi North 9.2 mph - N/A   Overcast
4:58 PM 24.4 °F 14.2 °F 20.1 °F 84% 29.87 in 10.0 mi North 10.4 mph - N/A   Overcast
5:58 PM 23.7 °F 12.6 °F 19.8 °F 85% 29.87 in 10.0 mi North 11.5 mph 17.3 mph N/A   Overcast
6:08 PM 23.0 °F 13.1 °F 19.4 °F 86% 29.81 in 10.0 mi North 9.2 mph 17.3 mph N/A   Overcast
6:33 PM 23.0 °F 10.6 °F 19.4 °F 86% 29.79 in 10.0 mi NNE 13.8 mph - N/A   Overcast
6:58 PM 23.2 °F 11.4 °F 19.6 °F 86% 29.85 in 10.0 mi NNE 12.7 mph - N/A   Overcast
7:08 PM 23.0 °F 11.1 °F 19.4 °F 86% 29.80 in 10.0 mi North 12.7 mph - N/A   Overcast
7:48 PM 23.0 °F 11.7 °F 17.6 °F 80% 29.81 in 10.0 mi NNE 11.5 mph - N/A   Overcast
7:58 PM 22.1 °F 10.6 °F 18.5 °F 86% 29.88 in 10.0 mi North 11.5 mph 19.6 mph N/A   Overcast
8:58 PM 21.6 °F 11.3 °F 18.7 °F 89% 29.86 in 10.0 mi North 9.2 mph 17.3 mph N/A   Overcast
9:18 PM 21.2 °F 8.9 °F 19.4 °F 93% 29.79 in 10.0 mi North 12.7 mph - N/A   Overcast
9:58 PM 21.9 °F 11.7 °F 19.8 °F 91% 29.85 in 10.0 mi North 9.2 mph - N/A   Overcast
10:58 PM 23.2 °F 11.4 °F 20.5 °F 89% 29.88 in 10.0 mi North 12.7 mph - N/A   Overcast
11:08 PM 23.0 °F 12.4 °F 21.2 °F 93% 29.83 in 6.0 mi NNW 10.4 mph - N/A Snow Light Snow
11:48 PM 23.0 °F 10.1 °F 21.2 °F 93% 29.85 in 4.0 mi North 15.0 mph 17.3 mph N/A Snow Light Snow
11:58 PM 22.5 °F 11.1 °F 21.4 °F 96% 29.91 in 3.0 mi North 11.5 mph 20.7 mph 0.00 in Snow Light Snow